カタログに戻る

STARLINK-35313

運用中通信VLEO
NORAD 65758·PAYLOAD·🇺🇸 United States

打ち上げ Sep 25, 2025 から Cape Canaveral Space Force Station

Loading…

次のパス (今後24時間)

TLE

最新Source: CelesTrak SupGP

元期: Sep 15, 2026, 02:40 UTC

1 65758C 25216AA  26258.11159722 -.00036845  00000+0 -10885-2 0  2587
2 65758  53.1573 170.9250 0001311  80.4265 321.3113 15.34412066    19

AllMySatでSTARLINK-35313をリアルタイム追跡

Download on the App Store